Time,TemperatureF,DewpointF,PressureIn,WindDirection,WindDirectionDegrees,WindSpeedMPH,WindSpeedGustMPH,Humidity,HourlyPrecipIn,Conditions,Clouds,dailyrainin,SoftwareType,DateUTC
2013-12-20 00:01:00,36.7,25.3,30.10,South,180,0.0,0.0,63,0.00,CLR,,0.00,WeatherDisplay:10.37,2013-12-20 05:01:00,
2013-12-20 00:02:00,36.7,25.3,30.10,South,180,0.0,0.0,63,0.00,CLR,,0.00,WeatherDisplay:10.37,2013-12-20 05:02:00,
2013-12-20 00:03:00,36.7,25.6,30.11,South,180,0.0,0.0,64,0.00,CLR,,0.00,WeatherDisplay:10.37,2013-12-20 05:03:00,
2013-12-20 00:08:00,36.3,25.3,30.11,South,180,0.0,0.0,64,0.00,CLR,,0.00,WeatherDisplay:10.37,2013-12-20 05:08:00,
2013-12-20 00:12:00,36.0,25.3,30.11,East,90,0.0,0.0,65,0.00,CLR,,0.00,WeatherDisplay:10.37,2013-12-20 05:12:00,
2013-12-20 00:13:00,36.0,25.3,30.11,East,90,0.0,0.0,65,0.00,CLR,,0.00,WeatherDisplay:10.37,2013-12-20 05:13:00,
2013-12-20 00:16:00,36.0,25.7,30.11,East,90,0.0,0.0,66,0.00,CLR,,0.00,WeatherDisplay:10.37,2013-12-20 05:16:00,
2013-12-20 00:21:00,35.4,25.2,30.11,East,90,0.0,0.0,66,0.00,CLR,,0.00,WeatherDisplay:10.37,2013-12-20 05:21:00,
2013-12-20 00:26:00,35.4,25.2,30.10,East,90,0.0,0.0,66,0.00,CLR,,0.00,WeatherDisplay:10.37,2013-12-20 05:26:00,
2013-12-20 00:31:00,35.4,25.2,30.10,East,90,0.0,0.0,66,0.00,CLR,,0.00,WeatherDisplay:10.37,2013-12-20 05:31:00,
2013-12-20 00:36:00,35.4,25.2,30.10,East,90,0.0,0.0,66,0.00,CLR,,0.00,WeatherDisplay:10.37,2013-12-20 05:36:00,
2013-12-20 00:41:00,35.4,25.2,30.10,East,90,0.0,0.0,66,0.00,CLR,,0.00,WeatherDisplay:10.37,2013-12-20 05:41:00,
2013-12-20 00:46:00,35.4,25.5,30.10,East,90,0.0,0.0,67,0.00,CLR,,0.00,WeatherDisplay:10.37,2013-12-20 05:46:00,
2013-12-20 00:51:00,35.2,25.4,30.10,East,90,0.0,0.0,67,0.00,CLR,,0.00,WeatherDisplay:10.37,2013-12-20 05:51:00,
2013-12-20 00:56:00,35.2,25.4,30.10,East,90,0.0,0.0,67,0.00,CLR,,0.00,WeatherDisplay:10.37,2013-12-20 05:56:00,
2013-12-20 01:01:00,35.2,25.4,30.10,East,90,0.0,0.0,67,0.00,CLR,,0.00,WeatherDisplay:10.37,2013-12-20 06:01:00,
2013-12-20 01:06:00,35.2,25.4,30.10,East,90,0.0,0.0,67,0.00,CLR,,0.00,WeatherDisplay:10.37,2013-12-20 06:06:00,
2013-12-20 01:11:00,35.1,25.2,30.10,East,90,0.0,0.0,67,0.00,CLR,,0.00,WeatherDisplay:10.37,2013-12-20 06:11:00,
2013-12-20 01:16:00,34.9,25.0,30.10,East,90,0.0,0.0,67,0.00,CLR,,0.00,WeatherDisplay:10.37,2013-12-20 06:16:00,
2013-12-20 01:21:00,34.9,25.0,30.10,East,90,0.0,0.0,67,0.00,CLR,,0.00,WeatherDisplay:10.37,2013-12-20 06:21:00,
2013-12-20 01:26:00,34.9,25.0,30.09,East,90,0.0,0.0,67,0.00,CLR,,0.00,WeatherDisplay:10.37,2013-12-20 06:26:00,
2013-12-20 01:31:00,34.7,24.9,30.10,East,90,0.0,0.0,67,0.00,CLR,,0.00,WeatherDisplay:10.37,2013-12-20 06:31:00,
2013-12-20 01:36:00,34.5,24.7,30.10,East,90,0.0,0.0,67,0.00,CLR,,0.00,WeatherDisplay:10.37,2013-12-20 06:36:00,
2013-12-20 01:41:00,34.3,24.5,30.10,East,90,0.0,0.0,67,0.00,CLR,,0.00,WeatherDisplay:10.37,2013-12-20 06:41:00,
2013-12-20 01:46:00,34.3,24.5,30.10,East,90,0.0,0.0,67,0.00,CLR,,0.00,WeatherDisplay:10.37,2013-12-20 06:46:00,
2013-12-20 01:51:00,34.3,24.5,30.10,SSE,158,0.0,0.0,67,0.00,CLR,,0.00,WeatherDisplay:10.37,2013-12-20 06:51:00,
2013-12-20 01:56:00,34.2,24.7,30.09,SSE,158,0.0,0.0,68,0.00,CLR,,0.00,WeatherDisplay:10.37,2013-12-20 06:56:00,
2013-12-20 02:01:00,34.2,24.7,30.10,SSE,158,0.0,0.0,68,0.00,CLR,,0.00,WeatherDisplay:10.37,2013-12-20 07:01:00,
2013-12-20 02:06:00,34.0,24.5,30.10,SSE,158,0.0,0.0,68,0.00,CLR,,0.00,WeatherDisplay:10.37,2013-12-20 07:06:00,
2013-12-20 02:11:00,34.0,24.5,30.10,SSE,158,0.0,0.0,68,0.00,CLR,,0.00,WeatherDisplay:10.37,2013-12-20 07:11:00,
2013-12-20 02:16:00,33.8,24.4,30.10,SSE,158,0.0,0.0,68,0.00,CLR,,0.00,WeatherDisplay:10.37,2013-12-20 07:16:00,
2013-12-20 02:21:00,33.6,24.2,30.10,SSE,158,0.0,0.0,68,0.00,CLR,,0.00,WeatherDisplay:10.37,2013-12-20 07:21:00,
2013-12-20 02:26:00,33.4,24.0,30.10,SSE,158,0.0,0.0,68,0.00,CLR,,0.00,WeatherDisplay:10.37,2013-12-20 07:26:00,
2013-12-20 02:31:00,33.4,24.0,30.11,SSE,158,0.0,0.0,68,0.00,CLR,,0.00,WeatherDisplay:10.37,2013-12-20 07:31:00,
2013-12-20 02:36:00,33.1,23.7,30.11,SSE,158,0.0,0.0,68,0.00,CLR,,0.00,WeatherDisplay:10.37,2013-12-20 07:36:00,
2013-12-20 02:41:00,33.1,23.7,30.10,SSE,158,0.0,0.0,68,0.00,CLR,,0.00,WeatherDisplay:10.37,2013-12-20 07:41:00,
2013-12-20 02:46:00,32.9,23.5,30.11,SSE,158,0.0,0.0,68,0.00,CLR,,0.00,WeatherDisplay:10.37,2013-12-20 07:46:00,
2013-12-20 02:51:00,32.9,23.5,30.11,SSE,158,0.0,0.0,68,0.00,CLR,,0.00,WeatherDisplay:10.37,2013-12-20 07:51:00,
2013-12-20 02:56:00,32.9,23.8,30.11,SSE,158,0.0,0.0,69,0.00,CLR,,0.00,WeatherDisplay:10.37,2013-12-20 07:56:00,
2013-12-20 03:01:00,32.9,23.8,30.10,SSE,158,0.0,0.0,69,0.00,CLR,,0.00,WeatherDisplay:10.37,2013-12-20 08:01:00,
2013-12-20 03:06:00,32.7,23.7,30.11,SSE,158,0.0,0.0,69,0.00,CLR,,0.00,WeatherDisplay:10.37,2013-12-20 08:06:00,
2013-12-20 03:11:00,32.9,23.8,30.10,SE,135,0.0,0.0,69,0.00,CLR,,0.00,WeatherDisplay:10.37,2013-12-20 08:11:00,
2013-12-20 03:16:00,32.9,23.8,30.11,SE,135,0.0,0.0,69,0.00,CLR,,0.00,WeatherDisplay:10.37,2013-12-20 08:16:00,
2013-12-20 03:21:00,32.9,23.8,30.11,SE,135,0.0,0.0,69,0.00,CLR,,0.00,WeatherDisplay:10.37,2013-12-20 08:21:00,
2013-12-20 03:26:00,32.9,24.2,30.11,SE,135,0.0,0.0,70,0.00,CLR,,0.00,WeatherDisplay:10.37,2013-12-20 08:26:00,
2013-12-20 03:31:00,32.9,24.2,30.11,SE,135,0.0,0.0,70,0.00,CLR,,0.00,WeatherDisplay:10.37,2013-12-20 08:31:00,
2013-12-20 03:36:00,33.1,24.4,30.11,SE,135,0.0,0.0,70,0.00,CLR,,0.00,WeatherDisplay:10.37,2013-12-20 08:36:00,
2013-12-20 03:41:00,33.1,24.4,30.11,SE,135,0.0,0.0,70,0.00,CLR,,0.00,WeatherDisplay:10.37,2013-12-20 08:41:00,
2013-12-20 03:46:00,33.1,24.4,30.11,SE,135,0.0,0.0,70,0.00,CLR,,0.00,WeatherDisplay:10.37,2013-12-20 08:46:00,
2013-12-20 03:51:00,33.1,24.4,30.11,SE,135,0.0,0.0,70,0.00,CLR,,0.00,WeatherDisplay:10.37,2013-12-20 08:51:00,
2013-12-20 03:56:00,33.1,24.7,30.11,SE,135,0.0,0.0,71,0.00,CLR,,0.00,WeatherDisplay:10.37,2013-12-20 08:56:00,
2013-12-20 04:01:00,33.1,24.7,30.11,SE,135,0.0,0.0,71,0.00,CLR,,0.00,WeatherDisplay:10.37,2013-12-20 09:01:00,
2013-12-20 04:06:00,32.9,24.5,30.11,SE,135,0.0,0.0,71,0.00,CLR,,0.00,WeatherDisplay:10.37,2013-12-20 09:06:00,
2013-12-20 04:11:00,32.9,24.5,30.11,SE,135,0.0,0.0,71,0.00,CLR,,0.00,WeatherDisplay:10.37,2013-12-20 09:11:00,
2013-12-20 04:16:00,32.9,24.5,30.11,SE,135,0.0,0.0,71,0.00,CLR,,0.00,WeatherDisplay:10.37,2013-12-20 09:16:00,
2013-12-20 04:21:00,32.9,24.5,30.11,SSE,158,0.0,0.0,71,0.00,CLR,,0.00,WeatherDisplay:10.37,2013-12-20 09:21:00,
2013-12-20 04:26:00,32.7,24.3,30.11,SSE,158,0.0,0.0,71,0.00,CLR,,0.00,WeatherDisplay:10.37,2013-12-20 09:26:00,
2013-12-20 04:31:00,32.7,24.3,30.10,SE,135,0.0,0.0,71,0.00,CLR,,0.00,WeatherDisplay:10.37,2013-12-20 09:31:00,
2013-12-20 04:36:00,32.7,24.3,30.10,SE,135,0.0,0.0,71,0.00,CLR,,0.00,WeatherDisplay:10.37,2013-12-20 09:36:00,
2013-12-20 04:41:00,32.7,24.3,30.10,SE,135,0.0,0.0,71,0.00,CLR,,0.00,WeatherDisplay:10.37,2013-12-20 09:41:00,
2013-12-20 04:46:00,32.5,24.5,30.11,SE,135,0.0,0.0,72,0.00,CLR,,0.00,WeatherDisplay:10.37,2013-12-20 09:46:00,
2013-12-20 04:51:00,32.7,24.7,30.10,SE,135,0.0,0.0,72,0.00,CLR,,0.00,WeatherDisplay:10.37,2013-12-20 09:51:00,
2013-12-20 04:56:00,32.5,24.5,30.11,SE,135,0.0,0.0,72,0.00,CLR,,0.00,WeatherDisplay:10.37,2013-12-20 09:56:00,
2013-12-20 05:01:00,32.5,24.5,30.11,SE,135,0.0,0.0,72,0.00,CLR,,0.00,WeatherDisplay:10.37,2013-12-20 10:01:00,
2013-12-20 05:06:00,32.4,24.3,30.11,SE,135,0.0,0.0,72,0.00,CLR,,0.00,WeatherDisplay:10.37,2013-12-20 10:06:00,
2013-12-20 05:11:00,32.4,24.3,30.12,SE,135,0.0,0.0,72,0.00,CLR,,0.00,WeatherDisplay:10.37,2013-12-20 10:11:00,
2013-12-20 05:16:00,32.2,24.2,30.11,SE,135,0.0,0.0,72,0.00,CLR,,0.00,WeatherDisplay:10.37,2013-12-20 10:16:00,
2013-12-20 05:21:00,32.2,24.2,30.11,SE,135,0.0,0.0,72,0.00,CLR,,0.00,WeatherDisplay:10.37,2013-12-20 10:21:00,
2013-12-20 05:26:00,32.2,24.2,30.11,SE,135,0.0,0.0,72,0.00,CLR,,0.00,WeatherDisplay:10.37,2013-12-20 10:26:00,
2013-12-20 05:31:00,32.2,24.2,30.11,SE,135,0.0,0.0,72,0.00,CLR,,0.00,WeatherDisplay:10.37,2013-12-20 10:31:00,
2013-12-20 05:36:00,32.2,24.2,30.11,SE,135,0.0,0.0,72,0.00,CLR,,0.00,WeatherDisplay:10.37,2013-12-20 10:36:00,
2013-12-20 05:41:00,32.0,24.0,30.11,SE,135,0.0,0.0,72,0.00,CLR,,0.00,WeatherDisplay:10.37,2013-12-20 10:41:00,
2013-12-20 05:46:00,31.8,24.1,30.11,SE,135,0.0,0.0,73,0.00,CLR,,0.00,WeatherDisplay:10.37,2013-12-20 10:46:00,
2013-12-20 05:51:00,31.8,24.1,30.11,SE,135,0.0,0.0,73,0.00,CLR,,0.00,WeatherDisplay:10.37,2013-12-20 10:51:00,
2013-12-20 05:56:00,31.6,24.0,30.11,SE,135,0.0,0.0,73,0.00,CLR,,0.00,WeatherDisplay:10.37,2013-12-20 10:56:00,
2013-12-20 06:01:00,31.6,24.0,30.11,SSE,158,0.0,0.0,73,0.00,CLR,,0.00,WeatherDisplay:10.37,2013-12-20 11:01:00,
2013-12-20 06:06:00,31.6,24.0,30.11,SSE,158,0.0,0.0,73,0.00,CLR,,0.00,WeatherDisplay:10.37,2013-12-20 11:06:00,
2013-12-20 06:11:00,31.6,24.0,30.11,SSE,158,0.0,0.0,73,0.00,CLR,,0.00,WeatherDisplay:10.37,2013-12-20 11:11:00,
2013-12-20 06:16:00,31.3,23.6,30.10,SSE,158,0.0,0.0,73,0.00,CLR,,0.00,WeatherDisplay:10.37,2013-12-20 11:16:00,
2013-12-20 06:21:00,31.3,23.6,30.10,SSE,158,0.0,0.0,73,0.00,CLR,,0.00,WeatherDisplay:10.37,2013-12-20 11:21:00,
2013-12-20 06:26:00,31.3,23.6,30.10,SSE,158,0.0,0.0,73,0.00,CLR,,0.00,WeatherDisplay:10.37,2013-12-20 11:26:00,
2013-12-20 06:31:00,31.1,23.5,30.10,SE,135,0.0,0.0,73,0.00,CLR,,0.00,WeatherDisplay:10.37,2013-12-20 11:31:00,
2013-12-20 06:36:00,31.1,23.8,30.10,SE,135,0.0,0.0,74,0.00,CLR,,0.00,WeatherDisplay:10.37,2013-12-20 11:36:00,
2013-12-20 06:41:00,30.9,23.6,30.10,SE,135,0.0,0.0,74,0.00,CLR,,0.00,WeatherDisplay:10.37,2013-12-20 11:41:00,
2013-12-20 06:46:00,30.9,23.6,30.10,SE,135,0.0,0.0,74,0.00,CLR,,0.00,WeatherDisplay:10.37,2013-12-20 11:46:00,
2013-12-20 06:51:00,30.9,23.6,30.11,SE,135,0.0,0.0,74,0.00,CLR,,0.00,WeatherDisplay:10.37,2013-12-20 11:51:00,
2013-12-20 06:56:00,30.7,23.4,30.11,SE,135,0.0,0.0,74,0.00,CLR,,0.00,WeatherDisplay:10.37,2013-12-20 11:56:00,
2013-12-20 07:01:00,30.7,23.4,30.11,SSE,158,0.0,0.0,74,0.00,CLR,,0.00,WeatherDisplay:10.37,2013-12-20 12:01:00,
2013-12-20 07:06:00,30.7,23.4,30.11,SE,135,0.0,0.0,74,0.00,CLR,,0.00,WeatherDisplay:10.37,2013-12-20 12:06:00,
2013-12-20 07:11:00,30.7,23.8,30.11,SE,135,0.0,0.0,75,0.00,CLR,,0.00,WeatherDisplay:10.37,2013-12-20 12:11:00,
2013-12-20 07:16:00,30.7,23.8,30.11,SE,135,0.0,0.0,75,0.00,CLR,,0.00,WeatherDisplay:10.37,2013-12-20 12:16:00,
2013-12-20 07:21:00,30.7,23.8,30.11,SE,135,0.0,0.0,75,0.00,CLR,,0.00,WeatherDisplay:10.37,2013-12-20 12:21:00,
2013-12-20 07:26:00,30.7,23.8,30.11,SE,135,0.0,0.0,75,0.00,CLR,,0.00,WeatherDisplay:10.37,2013-12-20 12:26:00,
2013-12-20 07:31:00,30.7,23.8,30.10,SE,135,0.0,0.0,75,0.00,CLR,,0.00,WeatherDisplay:10.37,2013-12-20 12:31:00,
2013-12-20 07:36:00,30.7,23.8,30.10,SE,135,0.0,0.0,75,0.00,CLR,,0.00,WeatherDisplay:10.37,2013-12-20 12:36:00,
2013-12-20 07:41:00,30.7,23.8,30.11,SE,135,0.0,0.0,75,0.00,CLR,,0.00,WeatherDisplay:10.37,2013-12-20 12:41:00,
2013-12-20 07:46:00,30.7,23.8,30.11,SE,135,0.0,0.0,75,0.00,CLR,,0.00,WeatherDisplay:10.37,2013-12-20 12:46:00,
2013-12-20 07:51:00,30.6,23.6,30.11,SE,135,0.0,0.0,75,0.00,CLR,,0.00,WeatherDisplay:10.37,2013-12-20 12:51:00,
2013-12-20 07:56:00,30.6,23.6,30.10,SE,135,0.0,0.0,75,0.00,CLR,,0.00,WeatherDisplay:10.37,2013-12-20 12:56:00,
2013-12-20 08:01:00,30.6,23.6,30.10,SE,135,0.0,0.0,75,0.00,CLR,,0.00,WeatherDisplay:10.37,2013-12-20 13:01:00,
2013-12-20 08:06:00,30.6,23.6,30.10,SE,135,0.0,0.0,75,0.00,CLR,,0.00,WeatherDisplay:10.37,2013-12-20 13:06:00,
2013-12-20 08:11:00,30.7,23.8,30.10,SE,135,0.0,0.0,75,0.00,CLR,,0.00,WeatherDisplay:10.37,2013-12-20 13:11:00,
2013-12-20 08:16:00,30.7,23.8,30.10,SE,135,0.0,0.0,75,0.00,CLR,,0.00,WeatherDisplay:10.37,2013-12-20 13:16:00,
2013-12-20 08:21:00,30.9,23.9,30.10,SE,135,0.0,0.0,75,0.00,CLR,,0.00,WeatherDisplay:10.37,2013-12-20 13:21:00,
2013-12-20 08:26:00,31.3,24.3,30.11,SE,135,0.0,0.0,75,0.00,CLR,,0.00,WeatherDisplay:10.37,2013-12-20 13:26:00,
2013-12-20 08:31:00,31.3,24.3,30.10,SE,135,0.0,0.0,75,0.00,CLR,,0.00,WeatherDisplay:10.37,2013-12-20 13:31:00,
2013-12-20 08:36:00,31.6,24.9,30.10,SE,135,0.0,0.0,76,0.00,CLR,,0.00,WeatherDisplay:10.37,2013-12-20 13:36:00,
2013-12-20 08:41:00,31.8,25.1,30.11,SE,135,0.0,0.0,76,0.00,CLR,,0.00,WeatherDisplay:10.37,2013-12-20 13:41:00,
2013-12-20 08:46:00,32.4,25.6,30.10,SE,135,0.0,0.0,76,0.00,CLR,,0.00,WeatherDisplay:10.37,2013-12-20 13:46:00,
2013-12-20 08:51:00,32.7,26.0,30.10,SE,135,0.0,0.0,76,0.00,CLR,,0.00,WeatherDisplay:10.37,2013-12-20 13:51:00,
2013-12-20 08:56:00,32.9,26.5,30.10,SE,135,0.0,0.0,77,0.00,CLR,,0.00,WeatherDisplay:10.37,2013-12-20 13:56:00,
2013-12-20 09:01:00,33.3,26.8,30.10,SE,135,0.0,0.0,77,0.00,CLR,,0.00,WeatherDisplay:10.37,2013-12-20 14:01:00,
2013-12-20 09:06:00,33.8,27.4,30.10,SE,135,0.0,0.0,77,0.00,CLR,,0.00,WeatherDisplay:10.37,2013-12-20 14:06:00,
2013-12-20 09:11:00,34.3,27.9,30.10,SE,135,0.0,0.0,77,0.00,CLR,,0.00,WeatherDisplay:10.37,2013-12-20 14:11:00,
2013-12-20 09:16:00,34.7,28.2,30.11,SE,135,0.0,0.0,77,0.00,CLR,,0.00,WeatherDisplay:10.37,2013-12-20 14:16:00,
2013-12-20 09:21:00,35.2,28.8,30.11,SSE,158,0.0,0.0,77,0.00,CLR,,0.00,WeatherDisplay:10.37,2013-12-20 14:21:00,
2013-12-20 09:26:00,35.8,29.3,30.11,South,180,0.0,0.0,77,0.00,CLR,,0.00,WeatherDisplay:10.37,2013-12-20 14:26:00,
2013-12-20 09:31:00,36.3,30.1,30.11,SSW,202,0.0,0.0,78,0.00,CLR,,0.00,WeatherDisplay:10.37,2013-12-20 14:31:00,
2013-12-20 09:36:00,37.2,31.0,30.11,SW,225,0.0,0.0,78,0.00,CLR,,0.00,WeatherDisplay:10.37,2013-12-20 14:36:00,
2013-12-20 09:41:00,38.8,32.2,30.11,South,180,0.0,0.0,77,0.00,CLR,,0.00,WeatherDisplay:10.37,2013-12-20 14:41:00,
2013-12-20 09:46:00,39.7,32.8,30.11,South,180,0.0,0.0,76,0.00,CLR,,0.00,WeatherDisplay:10.37,2013-12-20 14:46:00,
2013-12-20 09:51:00,40.8,33.2,30.11,South,180,0.0,0.0,74,0.00,CLR,,0.00,WeatherDisplay:10.37,2013-12-20 14:51:00,
2013-12-20 09:56:00,41.4,33.4,30.11,South,180,0.0,0.0,73,0.00,CLR,,0.00,WeatherDisplay:10.37,2013-12-20 14:56:00,
2013-12-20 10:01:00,41.5,33.2,30.11,SSW,202,0.0,0.0,72,0.00,CLR,,0.00,WeatherDisplay:10.37,2013-12-20 15:01:00,
2013-12-20 10:06:00,42.4,33.3,30.11,South,180,0.0,0.0,70,0.00,CLR,,0.00,WeatherDisplay:10.37,2013-12-20 15:06:00,
2013-12-20 10:11:00,42.6,33.2,30.11,SSW,202,0.0,0.0,69,0.00,CLR,,0.00,WeatherDisplay:10.37,2013-12-20 15:11:00,
2013-12-20 10:16:00,43.0,33.1,30.11,SSW,202,0.0,0.0,68,0.00,CLR,,0.00,WeatherDisplay:10.37,2013-12-20 15:16:00,
2013-12-20 10:21:00,43.3,33.1,30.11,SSW,202,0.0,0.0,67,0.00,CLR,,0.00,WeatherDisplay:10.37,2013-12-20 15:21:00,
2013-12-20 10:26:00,43.7,33.1,30.10,South,180,0.0,0.0,66,0.00,CLR,,0.00,WeatherDisplay:10.37,2013-12-20 15:26:00,
2013-12-20 10:31:00,44.1,33.0,30.10,SSW,202,3.5,4.0,65,0.00,CLR,,0.00,WeatherDisplay:10.37,2013-12-20 15:31:00,
2013-12-20 10:36:00,44.4,32.6,30.10,South,180,4.6,4.6,63,0.00,CLR,,0.00,WeatherDisplay:10.37,2013-12-20 15:36:00,
2013-12-20 10:41:00,44.8,32.9,30.09,South,180,0.0,0.0,63,0.00,CLR,,0.00,WeatherDisplay:10.37,2013-12-20 15:41:00,
2013-12-20 10:46:00,44.8,32.5,30.09,WSW,248,0.0,0.0,62,0.00,CLR,,0.00,WeatherDisplay:10.37,2013-12-20 15:46:00,
2013-12-20 10:51:00,45.1,32.5,30.09,WNW,292,2.3,2.3,61,0.00,CLR,,0.00,WeatherDisplay:10.37,2013-12-20 15:51:00,
2013-12-20 10:56:00,45.3,32.7,30.10,WNW,292,0.0,0.0,61,0.00,CLR,,0.00,WeatherDisplay:10.37,2013-12-20 15:56:00,
2013-12-20 11:01:00,45.5,32.4,30.10,West,270,0.0,0.0,60,0.00,CLR,,0.00,WeatherDisplay:10.37,2013-12-20 16:01:00,
2013-12-20 11:06:00,46.0,32.9,30.09,WSW,248,0.0,0.0,60,0.00,CLR,,0.00,WeatherDisplay:10.37,2013-12-20 16:06:00,
2013-12-20 11:11:00,46.2,33.1,30.10,West,270,0.0,0.0,60,0.00,CLR,,0.00,WeatherDisplay:10.37,2013-12-20 16:11:00,
2013-12-20 11:16:00,46.6,33.4,30.09,South,180,2.3,2.3,60,0.00,CLR,,0.00,WeatherDisplay:10.37,2013-12-20 16:16:00,
2013-12-20 11:21:00,46.9,33.8,30.09,SSW,202,1.1,1.1,60,0.00,CLR,,0.00,WeatherDisplay:10.37,2013-12-20 16:21:00,
2013-12-20 11:26:00,47.3,34.1,30.08,SSW,202,0.4,0.4,60,0.00,CLR,,0.00,WeatherDisplay:10.37,2013-12-20 16:26:00,
2013-12-20 11:31:00,48.4,34.7,30.08,South,180,4.9,4.9,59,0.00,CLR,,0.00,WeatherDisplay:10.37,2013-12-20 16:31:00,
2013-12-20 11:36:00,48.9,34.8,30.08,WSW,248,0.0,0.0,58,0.00,CLR,,0.00,WeatherDisplay:10.37,2013-12-20 16:36:00,
2013-12-20 11:41:00,49.6,34.6,30.09,SW,225,6.0,6.0,56,0.00,CLR,,0.00,WeatherDisplay:10.37,2013-12-20 16:41:00,
2013-12-20 11:46:00,50.2,34.6,30.08,SSW,202,4.6,4.6,55,0.00,CLR,,0.00,WeatherDisplay:10.37,2013-12-20 16:46:00,
2013-12-20 11:51:00,50.7,34.7,30.08,SSW,202,0.0,0.0,54,0.00,CLR,,0.00,WeatherDisplay:10.37,2013-12-20 16:51:00,
2013-12-20 11:56:00,51.3,35.2,30.07,South,180,0.0,0.0,54,0.00,CLR,,0.00,WeatherDisplay:10.37,2013-12-20 16:56:00,
2013-12-20 12:01:00,51.6,35.0,30.07,SSW,202,4.6,4.6,53,0.00,CLR,,0.00,WeatherDisplay:10.37,2013-12-20 17:01:00,
2013-12-20 12:06:00,52.3,35.2,30.07,SSW,202,5.8,5.8,52,0.00,CLR,,0.00,WeatherDisplay:10.37,2013-12-20 17:06:00,
2013-12-20 12:11:00,52.5,35.4,30.06,SSW,202,6.0,6.0,52,0.00,CLR,,0.00,WeatherDisplay:10.37,2013-12-20 17:11:00,
2013-12-20 12:16:00,52.9,34.7,30.06,South,180,9.2,9.2,50,0.00,CLR,,0.00,WeatherDisplay:10.37,2013-12-20 17:16:00,
2013-12-20 12:21:00,53.4,34.7,30.06,South,180,9.2,9.2,49,0.00,CLR,,0.00,WeatherDisplay:10.37,2013-12-20 17:21:00,
2013-12-20 12:26:00,53.8,34.5,30.05,SSW,202,4.6,4.6,48,0.00,CLR,,0.00,WeatherDisplay:10.37,2013-12-20 17:26:00,
2013-12-20 12:31:00,54.3,34.5,30.05,SSE,158,3.5,4.7,47,0.00,CLR,,0.00,WeatherDisplay:10.37,2013-12-20 17:31:00,
2013-12-20 12:36:00,55.0,34.6,30.05,SSW,202,12.7,12.7,46,0.00,CLR,,0.00,WeatherDisplay:10.37,2013-12-20 17:36:00,
2013-12-20 12:41:00,55.4,34.9,30.05,SSE,158,5.8,5.8,46,0.00,CLR,,0.00,WeatherDisplay:10.37,2013-12-20 17:41:00,
2013-12-20 12:46:00,55.9,34.3,30.04,SSW,202,6.5,6.5,44,0.00,CLR,,0.00,WeatherDisplay:10.37,2013-12-20 17:46:00,
2013-12-20 12:51:00,56.3,34.6,30.04,SSW,202,4.6,4.6,44,0.00,CLR,,0.00,WeatherDisplay:10.37,2013-12-20 17:51:00,
2013-12-20 12:56:00,56.8,35.1,30.04,South,180,3.5,3.7,44,0.00,CLR,,0.00,WeatherDisplay:10.37,2013-12-20 17:56:00,
2013-12-20 13:01:00,56.8,34.0,30.04,SSW,202,5.8,5.8,42,0.00,CLR,,0.00,WeatherDisplay:10.37,2013-12-20 18:01:00,
2013-12-20 13:06:00,57.0,33.5,30.04,SSW,202,8.1,8.1,41,0.00,CLR,,0.00,WeatherDisplay:10.37,2013-12-20 18:06:00,
2013-12-20 13:11:00,57.0,33.5,30.03,South,180,8.1,8.1,41,0.00,CLR,,0.00,WeatherDisplay:10.37,2013-12-20 18:11:00,
2013-12-20 13:16:00,57.6,34.0,30.03,SSE,158,3.5,3.5,41,0.00,CLR,,0.00,WeatherDisplay:10.37,2013-12-20 18:16:00,
2013-12-20 13:21:00,57.7,34.2,30.03,South,180,3.5,3.5,41,0.00,CLR,,0.00,WeatherDisplay:10.37,2013-12-20 18:21:00,
2013-12-20 13:26:00,57.7,34.2,30.03,SSE,158,3.5,3.5,41,0.00,CLR,,0.00,WeatherDisplay:10.37,2013-12-20 18:26:00,
2013-12-20 13:31:00,57.9,33.7,30.02,SSE,158,9.2,9.2,40,0.00,CLR,,0.00,WeatherDisplay:10.37,2013-12-20 18:31:00,
2013-12-20 13:36:00,58.6,34.4,30.02,SSE,158,3.5,3.5,40,0.00,CLR,,0.00,WeatherDisplay:10.37,2013-12-20 18:36:00,
2013-12-20 13:41:00,58.8,33.9,30.02,South,180,11.6,11.6,39,0.00,CLR,,0.00,WeatherDisplay:10.37,2013-12-20 18:41:00,
2013-12-20 13:46:00,59.0,33.4,30.01,SW,225,11.5,11.5,38,0.00,CLR,,0.00,WeatherDisplay:10.37,2013-12-20 18:46:00,
2013-12-20 13:51:00,59.7,33.4,30.01,SSW,202,8.1,8.1,37,0.00,CLR,,0.00,WeatherDisplay:10.37,2013-12-20 18:51:00,
2013-12-20 13:56:00,60.1,33.7,30.01,SSE,158,0.0,0.0,37,0.00,CLR,,0.00,WeatherDisplay:10.37,2013-12-20 18:56:00,
2013-12-20 14:01:00,60.1,33.7,30.01,South,180,6.9,6.9,37,0.00,CLR,,0.00,WeatherDisplay:10.37,2013-12-20 19:01:00,
2013-12-20 14:06:00,60.6,34.2,30.00,South,180,10.7,10.7,37,0.00,CLR,,0.00,WeatherDisplay:10.37,2013-12-20 19:06:00,
2013-12-20 14:11:00,60.6,33.5,30.00,South,180,9.2,9.2,36,0.00,CLR,,0.00,WeatherDisplay:10.37,2013-12-20 19:11:00,
2013-12-20 14:16:00,60.6,33.5,30.01,South,180,5.1,5.1,36,0.00,CLR,,0.00,WeatherDisplay:10.37,2013-12-20 19:16:00,
2013-12-20 14:21:00,60.6,33.5,30.01,SSW,202,9.4,9.4,36,0.00,CLR,,0.00,WeatherDisplay:10.37,2013-12-20 19:21:00,
2013-12-20 14:26:00,60.6,32.8,30.01,SSW,202,11.8,11.8,35,0.00,CLR,,0.00,WeatherDisplay:10.37,2013-12-20 19:26:00,
2013-12-20 14:31:00,61.0,33.1,30.01,South,180,6.9,6.9,35,0.00,CLR,,0.00,WeatherDisplay:10.37,2013-12-20 19:31:00,
2013-12-20 14:33:00,61.0,33.1,30.01,SW,225,9.2,9.2,35,0.00,CLR,,0.00,WeatherDisplay:10.37,2013-12-20 19:33:00,
2013-12-20 14:38:00,61.0,33.1,30.01,SSW,202,9.4,9.4,35,0.00,CLR,,0.00,WeatherDisplay:10.37,2013-12-20 19:38:00,
2013-12-20 14:43:00,61.2,33.3,30.01,SSW,202,8.1,8.1,35,0.00,CLR,,0.00,WeatherDisplay:10.37,2013-12-20 19:43:00,
2013-12-20 14:48:00,61.3,33.4,30.01,South,180,12.7,13.2,35,0.00,CLR,,0.00,WeatherDisplay:10.37,2013-12-20 19:48:00,
2013-12-20 14:53:00,61.7,33.7,30.01,South,180,11.5,11.5,35,0.00,CLR,,0.00,WeatherDisplay:10.37,2013-12-20 19:53:00,
2013-12-20 14:58:00,62.2,34.2,30.00,South,180,4.0,4.0,35,0.00,CLR,,0.00,WeatherDisplay:10.37,2013-12-20 19:58:00,
2013-12-20 15:03:00,62.4,34.4,30.00,South,180,5.8,6.0,35,0.00,CLR,,0.00,WeatherDisplay:10.37,2013-12-20 20:03:00,
2013-12-20 15:08:00,62.8,34.7,30.01,South,180,10.4,10.4,35,0.00,CLR,,0.00,WeatherDisplay:10.37,2013-12-20 20:08:00,
2013-12-20 15:13:00,62.8,34.7,30.01,South,180,11.5,11.5,35,0.00,CLR,,0.00,WeatherDisplay:10.37,2013-12-20 20:13:00,
2013-12-20 15:18:00,62.4,33.7,30.01,South,180,6.9,6.9,34,0.00,CLR,,0.00,WeatherDisplay:10.37,2013-12-20 20:18:00,
2013-12-20 15:23:00,62.2,33.5,30.01,South,180,11.5,11.5,34,0.00,CLR,,0.00,WeatherDisplay:10.37,2013-12-20 20:23:00,
2013-12-20 15:28:00,61.9,33.9,30.01,South,180,6.9,6.9,35,0.00,CLR,,0.00,WeatherDisplay:10.37,2013-12-20 20:28:00,
2013-12-20 15:33:00,61.3,33.4,30.01,South,180,8.1,8.1,35,0.00,CLR,,0.00,WeatherDisplay:10.37,2013-12-20 20:33:00,
2013-12-20 15:38:00,61.2,34.0,30.02,South,180,6.9,6.9,36,0.00,CLR,,0.00,WeatherDisplay:10.37,2013-12-20 20:38:00,
2013-12-20 15:43:00,61.0,33.8,30.02,South,180,0.0,0.0,36,0.00,CLR,,0.00,WeatherDisplay:10.37,2013-12-20 20:43:00,
2013-12-20 15:48:00,60.6,33.5,30.02,South,180,10.7,10.7,36,0.00,CLR,,0.00,WeatherDisplay:10.37,2013-12-20 20:48:00,
2013-12-20 15:53:00,60.4,34.0,30.01,South,180,4.6,5.1,37,0.00,CLR,,0.00,WeatherDisplay:10.37,2013-12-20 20:53:00,
2013-12-20 15:58:00,60.3,33.9,30.02,South,180,4.6,4.6,37,0.00,CLR,,0.00,WeatherDisplay:10.37,2013-12-20 20:58:00,
2013-12-20 16:03:00,60.1,33.7,30.02,South,180,6.9,6.9,37,0.00,CLR,,0.00,WeatherDisplay:10.37,2013-12-20 21:03:00,
2013-12-20 16:08:00,59.9,33.5,30.02,South,180,4.9,4.9,37,0.00,CLR,,0.00,WeatherDisplay:10.37,2013-12-20 21:08:00,
2013-12-20 16:13:00,60.1,33.7,30.03,South,180,6.9,6.9,37,0.00,CLR,,0.00,WeatherDisplay:10.37,2013-12-20 21:13:00,
2013-12-20 16:18:00,59.9,33.5,30.03,SSE,158,6.9,6.9,37,0.00,CLR,,0.00,WeatherDisplay:10.37,2013-12-20 21:18:00,
2013-12-20 16:23:00,59.7,33.4,30.03,South,180,3.5,3.5,37,0.00,CLR,,0.00,WeatherDisplay:10.37,2013-12-20 21:23:00,
2013-12-20 16:28:00,59.5,33.2,30.03,South,180,6.9,6.9,37,0.00,CLR,,0.00,WeatherDisplay:10.37,2013-12-20 21:28:00,
2013-12-20 16:33:00,59.2,33.6,30.03,SSW,202,5.8,5.8,38,0.00,CLR,,0.00,WeatherDisplay:10.37,2013-12-20 21:33:00,
2013-12-20 16:38:00,58.8,33.2,30.03,South,180,4.6,4.6,38,0.00,CLR,,0.00,WeatherDisplay:10.37,2013-12-20 21:38:00,
2013-12-20 16:43:00,58.8,33.2,30.02,South,180,0.0,0.0,38,0.00,CLR,,0.00,WeatherDisplay:10.37,2013-12-20 21:43:00,
2013-12-20 16:48:00,58.5,32.9,30.02,SSE,158,3.5,3.5,38,0.00,CLR,,0.00,WeatherDisplay:10.37,2013-12-20 21:48:00,
2013-12-20 16:53:00,58.3,32.8,30.02,South,180,2.3,2.3,38,0.00,CLR,,0.00,WeatherDisplay:10.37,2013-12-20 21:53:00,
2013-12-20 16:58:00,57.9,32.4,30.03,South,180,4.7,4.7,38,0.00,CLR,,0.00,WeatherDisplay:10.37,2013-12-20 21:58:00,
2013-12-20 17:03:00,57.7,32.3,30.03,South,180,3.5,4.1,38,0.00,CLR,,0.00,WeatherDisplay:10.37,2013-12-20 22:03:00,
2013-12-20 17:08:00,57.6,32.1,30.04,South,180,5.8,0.0,38,0.00,CLR,,0.00,WeatherDisplay:10.37,2013-12-20 22:08:00,
2013-12-20 17:13:00,57.4,32.0,30.03,SSE,158,3.6,3.6,38,0.00,CLR,,0.00,WeatherDisplay:10.37,2013-12-20 22:13:00,
2013-12-20 17:18:00,57.4,32.0,30.03,South,180,5.8,6.1,38,0.00,CLR,,0.00,WeatherDisplay:10.37,2013-12-20 22:18:00,
2013-12-20 17:23:00,57.0,32.3,30.04,SSE,158,4.6,4.6,39,0.00,CLR,,0.00,WeatherDisplay:10.37,2013-12-20 22:23:00,
2013-12-20 17:28:00,57.0,32.3,30.03,South,180,5.8,5.8,39,0.00,CLR,,0.00,WeatherDisplay:10.37,2013-12-20 22:28:00,
2013-12-20 17:33:00,57.0,32.3,30.04,SSW,202,10.4,10.7,39,0.00,CLR,,0.00,WeatherDisplay:10.37,2013-12-20 22:33:00,
2013-12-20 17:38:00,57.0,31.6,30.04,South,180,6.9,6.9,38,0.00,CLR,,0.00,WeatherDisplay:10.37,2013-12-20 22:38:00,
2013-12-20 17:43:00,57.0,31.6,30.04,SSW,202,6.9,7.4,38,0.00,CLR,,0.00,WeatherDisplay:10.37,2013-12-20 22:43:00,
2013-12-20 17:48:00,57.0,31.6,30.04,South,180,4.6,4.8,38,0.00,CLR,,0.00,WeatherDisplay:10.37,2013-12-20 22:48:00,
2013-12-20 17:53:00,56.8,32.1,30.04,South,180,2.7,2.7,39,0.00,CLR,,0.00,WeatherDisplay:10.37,2013-12-20 22:53:00,
2013-12-20 17:58:00,56.8,31.5,30.04,South,180,8.3,0.0,38,0.00,CLR,,0.00,WeatherDisplay:10.37,2013-12-20 22:58:00,
2013-12-20 18:03:00,56.8,31.5,30.04,South,180,8.1,8.3,38,0.00,CLR,,0.00,WeatherDisplay:10.37,2013-12-20 23:03:00,
2013-12-20 18:08:00,56.8,31.5,30.04,South,180,2.3,2.3,38,0.00,CLR,,0.00,WeatherDisplay:10.37,2013-12-20 23:08:00,
2013-12-20 18:13:00,56.7,31.3,30.05,SSE,158,5.8,5.8,38,0.00,CLR,,0.00,WeatherDisplay:10.37,2013-12-20 23:13:00,
2013-12-20 18:18:00,56.7,31.3,30.05,South,180,5.8,5.8,38,0.00,CLR,,0.00,WeatherDisplay:10.37,2013-12-20 23:18:00,
2013-12-20 18:23:00,56.5,31.2,30.04,South,180,2.3,2.3,38,0.00,CLR,,0.00,WeatherDisplay:10.37,2013-12-20 23:23:00,
2013-12-20 18:28:00,56.5,31.2,30.04,South,180,3.5,3.5,38,0.00,CLR,,0.00,WeatherDisplay:10.37,2013-12-20 23:28:00,
2013-12-20 18:33:00,56.5,31.2,30.04,South,180,3.5,3.5,38,0.00,CLR,,0.00,WeatherDisplay:10.37,2013-12-20 23:33:00,
2013-12-20 18:38:00,56.5,31.2,30.04,SSW,202,10.5,10.5,38,0.00,CLR,,0.00,WeatherDisplay:10.37,2013-12-20 23:38:00,
2013-12-20 18:43:00,56.5,31.2,30.04,South,180,2.3,2.3,38,0.00,CLR,,0.00,WeatherDisplay:10.37,2013-12-20 23:43:00,
2013-12-20 18:48:00,56.3,31.6,30.05,South,180,8.5,8.5,39,0.00,CLR,,0.00,WeatherDisplay:10.37,2013-12-20 23:48:00,
2013-12-20 18:53:00,56.1,31.5,30.05,South,180,5.8,5.8,39,0.00,CLR,,0.00,WeatherDisplay:10.37,2013-12-20 23:53:00,
2013-12-20 18:58:00,55.9,31.3,30.05,SW,225,3.6,3.6,39,0.00,CLR,,0.00,WeatherDisplay:10.37,2013-12-20 23:58:00,
2013-12-20 19:03:00,55.9,31.3,30.04,SSE,158,2.3,2.3,39,0.00,CLR,,0.00,WeatherDisplay:10.37,2013-12-21 00:03:00,
2013-12-20 19:08:00,55.6,31.6,30.04,SSW,202,6.9,6.9,40,0.00,CLR,,0.00,WeatherDisplay:10.37,2013-12-21 00:08:00,
2013-12-20 19:13:00,55.2,31.3,30.04,South,180,2.3,2.5,40,0.00,CLR,,0.00,WeatherDisplay:10.37,2013-12-21 00:13:00,
2013-12-20 19:18:00,55.2,31.3,30.04,South,180,8.1,8.3,40,0.00,CLR,,0.00,WeatherDisplay:10.37,2013-12-21 00:18:00,
2013-12-20 19:23:00,55.2,31.3,30.04,SSW,202,11.5,11.5,40,0.00,CLR,,0.00,WeatherDisplay:10.37,2013-12-21 00:23:00,
2013-12-20 19:28:00,55.0,31.7,30.05,South,180,3.5,3.6,41,0.00,CLR,,0.00,WeatherDisplay:10.37,2013-12-21 00:28:00,
2013-12-20 19:33:00,55.0,31.7,30.05,SSW,202,4.9,0.0,41,0.00,CLR,,0.00,WeatherDisplay:10.37,2013-12-21 00:33:00,
2013-12-20 19:38:00,54.9,31.6,30.05,South,180,6.9,6.9,41,0.00,CLR,,0.00,WeatherDisplay:10.37,2013-12-21 00:38:00,
2013-12-20 19:43:00,54.9,32.2,30.05,SSW,202,3.1,3.1,42,0.00,CLR,,0.00,WeatherDisplay:10.37,2013-12-21 00:43:00,
2013-12-20 19:48:00,54.7,32.0,30.05,South,180,16.1,16.1,42,0.00,CLR,,0.00,WeatherDisplay:10.37,2013-12-21 00:48:00,
2013-12-20 19:53:00,54.7,32.0,30.05,SSW,202,5.8,6.3,42,0.00,CLR,,0.00,WeatherDisplay:10.37,2013-12-21 00:53:00,
2013-12-20 19:58:00,54.7,32.6,30.05,SSW,202,6.9,8.7,43,0.00,CLR,,0.00,WeatherDisplay:10.37,2013-12-21 00:58:00,
2013-12-20 20:03:00,54.7,32.6,30.05,South,180,5.8,6.8,43,0.00,CLR,,0.00,WeatherDisplay:10.37,2013-12-21 01:03:00,
2013-12-20 20:08:00,54.3,32.3,30.05,South,180,9.2,9.2,43,0.00,CLR,,0.00,WeatherDisplay:10.37,2013-12-21 01:08:00,
2013-12-20 20:13:00,54.3,32.8,30.05,SSW,202,3.5,3.5,44,0.00,CLR,,0.00,WeatherDisplay:10.37,2013-12-21 01:13:00,
2013-12-20 20:18:00,54.1,32.7,30.05,South,180,1.1,1.1,44,0.00,CLR,,0.00,WeatherDisplay:10.37,2013-12-21 01:18:00,
2013-12-20 20:23:00,54.0,32.5,30.05,South,180,4.6,4.6,44,0.00,CLR,,0.00,WeatherDisplay:10.37,2013-12-21 01:23:00,
2013-12-20 20:28:00,53.8,32.9,30.05,SSW,202,2.5,2.5,45,0.00,CLR,,0.00,WeatherDisplay:10.37,2013-12-21 01:28:00,
2013-12-20 20:33:00,53.8,32.9,30.05,South,180,4.6,4.6,45,0.00,CLR,,0.00,WeatherDisplay:10.37,2013-12-21 01:33:00,
2013-12-20 20:38:00,53.8,33.5,30.05,South,180,1.1,1.1,46,0.00,CLR,,0.00,WeatherDisplay:10.37,2013-12-21 01:38:00,
2013-12-20 20:43:00,53.8,33.5,30.05,SSW,202,0.0,0.0,46,0.00,CLR,,0.00,WeatherDisplay:10.37,2013-12-21 01:43:00,
2013-12-20 20:48:00,53.8,33.5,30.05,SSW,202,3.5,4.0,46,0.00,CLR,,0.00,WeatherDisplay:10.37,2013-12-21 01:48:00,
2013-12-20 20:53:00,53.4,33.7,30.04,South,180,2.3,2.3,47,0.00,CLR,,0.00,WeatherDisplay:10.37,2013-12-21 01:53:00,
2013-12-20 20:58:00,53.4,33.7,30.05,SSW,202,5.8,5.8,47,0.00,CLR,,0.00,WeatherDisplay:10.37,2013-12-21 01:58:00,
2013-12-20 21:03:00,53.4,34.2,30.06,SSW,202,3.5,3.5,48,0.00,CLR,,0.00,WeatherDisplay:10.37,2013-12-21 02:03:00,
2013-12-20 21:08:00,53.4,34.2,30.05,South,180,6.9,6.9,48,0.00,CLR,,0.00,WeatherDisplay:10.37,2013-12-21 02:08:00,
2013-12-20 21:13:00,53.4,34.2,30.05,SSW,202,1.1,1.3,48,0.00,CLR,,0.00,WeatherDisplay:10.37,2013-12-21 02:13:00,
2013-12-20 21:18:00,53.4,34.7,30.06,SW,225,1.3,1.3,49,0.00,CLR,,0.00,WeatherDisplay:10.37,2013-12-21 02:18:00,
2013-12-20 21:23:00,53.4,34.7,30.05,SW,225,0.0,0.0,49,0.00,CLR,,0.00,WeatherDisplay:10.37,2013-12-21 02:23:00,
2013-12-20 21:28:00,53.4,34.7,30.05,SW,225,0.0,0.0,49,0.00,CLR,,0.00,WeatherDisplay:10.37,2013-12-21 02:28:00,
2013-12-20 21:33:00,53.2,35.1,30.05,SSW,202,3.6,3.6,50,0.00,CLR,,0.00,WeatherDisplay:10.37,2013-12-21 02:33:00,
2013-12-20 21:38:00,53.2,35.1,30.05,SSW,202,0.0,0.0,50,0.00,CLR,,0.00,WeatherDisplay:10.37,2013-12-21 02:38:00,
2013-12-20 21:43:00,53.2,35.1,30.05,SSW,202,5.8,6.0,50,0.00,CLR,,0.00,WeatherDisplay:10.37,2013-12-21 02:43:00,
2013-12-20 21:48:00,52.9,35.2,30.05,South,180,3.5,3.5,51,0.00,CLR,,0.00,WeatherDisplay:10.37,2013-12-21 02:48:00,
2013-12-20 21:53:00,52.7,35.1,30.05,South,180,1.1,1.1,51,0.00,CLR,,0.00,WeatherDisplay:10.37,2013-12-21 02:53:00,
2013-12-20 21:58:00,52.5,35.4,30.05,South,180,2.3,2.5,52,0.00,CLR,,0.00,WeatherDisplay:10.37,2013-12-21 02:58:00,
2013-12-20 22:03:00,52.5,35.4,30.05,SSW,202,5.8,5.8,52,0.00,CLR,,0.00,WeatherDisplay:10.37,2013-12-21 03:03:00,
2013-12-20 22:08:00,52.7,36.0,30.05,South,180,2.5,2.5,53,0.00,CLR,,0.00,WeatherDisplay:10.37,2013-12-21 03:08:00,
2013-12-20 22:13:00,52.9,36.2,30.05,SSW,202,0.0,0.0,53,0.00,CLR,,0.00,WeatherDisplay:10.37,2013-12-21 03:13:00,
2013-12-20 22:18:00,52.9,36.2,30.05,SW,225,1.1,1.1,53,0.00,CLR,,0.00,WeatherDisplay:10.37,2013-12-21 03:18:00,
2013-12-20 22:23:00,53.1,36.4,30.05,SW,225,3.5,3.5,53,0.00,CLR,,0.00,WeatherDisplay:10.37,2013-12-21 03:23:00,
2013-12-20 22:28:00,53.1,36.4,30.06,SW,225,0.0,0.0,53,0.00,CLR,,0.00,WeatherDisplay:10.37,2013-12-21 03:28:00,
2013-12-20 22:33:00,52.9,36.7,30.06,WSW,248,0.0,0.0,54,0.00,CLR,,0.00,WeatherDisplay:10.37,2013-12-21 03:33:00,
2013-12-20 22:38:00,52.7,36.5,30.05,WSW,248,0.0,0.0,54,0.00,CLR,,0.00,WeatherDisplay:10.37,2013-12-21 03:38:00,
2013-12-20 22:43:00,52.2,36.5,30.05,West,270,0.0,0.0,55,0.00,CLR,,0.00,WeatherDisplay:10.37,2013-12-21 03:43:00,
2013-12-20 22:48:00,52.0,36.3,30.05,WSW,248,2.3,2.3,55,0.00,CLR,,0.00,WeatherDisplay:10.37,2013-12-21 03:48:00,
2013-12-20 22:53:00,51.6,36.0,30.05,WSW,248,0.0,0.0,55,0.00,CLR,,0.00,WeatherDisplay:10.37,2013-12-21 03:53:00,
2013-12-20 22:58:00,51.4,35.8,30.05,West,270,0.0,0.0,55,0.00,CLR,,0.00,WeatherDisplay:10.37,2013-12-21 03:58:00,
2013-12-20 23:03:00,50.9,35.7,30.06,WNW,292,0.0,0.0,56,0.00,CLR,,0.00,WeatherDisplay:10.37,2013-12-21 04:03:00,
2013-12-20 23:08:00,50.5,35.4,30.06,WNW,292,0.0,0.0,56,0.00,CLR,,0.00,WeatherDisplay:10.37,2013-12-21 04:08:00,
2013-12-20 23:13:00,50.2,35.5,30.06,WNW,292,0.0,0.0,57,0.00,CLR,,0.00,WeatherDisplay:10.37,2013-12-21 04:13:00,
2013-12-20 23:18:00,49.8,35.2,30.06,WNW,292,0.0,0.0,57,0.00,CLR,,0.00,WeatherDisplay:10.37,2013-12-21 04:18:00,
2013-12-20 23:23:00,49.6,35.0,30.06,WNW,292,0.0,0.0,57,0.00,CLR,,0.00,WeatherDisplay:10.37,2013-12-21 04:23:00,
2013-12-20 23:28:00,49.3,34.7,30.05,WNW,292,0.0,0.0,57,0.00,CLR,,0.00,WeatherDisplay:10.37,2013-12-21 04:28:00,
2013-12-20 23:33:00,49.1,34.5,30.06,WNW,292,0.0,0.0,57,0.00,CLR,,0.00,WeatherDisplay:10.37,2013-12-21 04:33:00,
2013-12-20 23:38:00,48.7,34.6,30.06,WNW,292,0.0,0.0,58,0.00,CLR,,0.00,WeatherDisplay:10.37,2013-12-21 04:38:00,
2013-12-20 23:43:00,48.6,34.4,30.05,West,270,0.0,0.0,58,0.00,CLR,,0.00,WeatherDisplay:10.37,2013-12-21 04:43:00,
2013-12-20 23:48:00,48.6,34.9,30.05,West,270,0.0,0.0,59,0.00,CLR,,0.00,WeatherDisplay:10.37,2013-12-21 04:48:00,
2013-12-20 23:53:00,48.7,35.0,30.05,WSW,248,0.0,0.0,59,0.00,CLR,,0.00,WeatherDisplay:10.37,2013-12-21 04:53:00,
2013-12-20 23:58:00,48.9,35.2,30.05,WSW,248,0.0,0.0,59,0.00,CLR,,0.00,WeatherDisplay:10.37,2013-12-21 04:58:00,